Wetterdaten: aktuell Mittwoch, 25.04.2018 08:46
Datum Zeit Temp. 2m Temp. 5cm Temp. -10cm Temp. 2m alt Feuchte A. Luftdruck Regen Wind Richtung Richtung Taupunkt Windchill Windben
25.04.2018 08:46 15,5 C 20,4 C 13,4 C 14,7 C 72 % 1016,2 hPa 0,0 l/m 2,3 km/h (1 Bft) S 180 10,5 C 15,5 C 12,4 km/h (3 Bft)
25.04.2018 08:44 15,5 C 19,8 C 13,4 C 14,6 C 72 % 1016,2 hPa 0,0 l/m 2,3 km/h (1 Bft) O-SO 112 10,5 C 15,5 C 4,4 km/h (1 Bft)
25.04.2018 08:42 15,3 C 19,5 C 13,4 C 14,5 C 72 % 1016,2 hPa 0,0 l/m 2,7 km/h (1 Bft) S-SO 157 10,3 C 15,3 C 4,4 km/h (1 Bft)
25.04.2018 08:40 15,2 C 19,4 C 13,5 C 14,3 C 73 % 1016,2 hPa 0,0 l/m 2,7 km/h (1 Bft) S-SO 157 10,4 C 15,2 C 3,5 km/h (1 Bft)
25.04.2018 08:38 15,2 C 18,9 C 13,5 C 14,2 C 73 % 1016,2 hPa 0,0 l/m 2,3 km/h (1 Bft) O-NO 67 10,4 C 15,2 C 10,4 km/h (2 Bft)
25.04.2018 08:34 14,9 C 19,5 C 13,5 C 13,9 C 75 % 1016,2 hPa 0,0 l/m 2,9 km/h (1 Bft) S-SO 157 10,5 C 14,9 C 10,4 km/h (2 Bft)
25.04.2018 08:32 14,7 C 19,1 C 13,5 C 13,7 C 75 % 1016,2 hPa 0,0 l/m 3,2 km/h (1 Bft) S-SO 157 10,3 C 14,7 C 10,4 km/h (2 Bft)
25.04.2018 08:30 14,4 C 18,8 C 13,5 C 13,5 C 76 % 1016,2 hPa 0,0 l/m 2,7 km/h (1 Bft) NO 45 10,2 C 14,4 C 4,1 km/h (1 Bft)
25.04.2018 08:28 14,1 C 18,2 C 13,5 C 13,3 C 76 % 1016,2 hPa 0,0 l/m 3,1 km/h (1 Bft) N-NO 22 9,9 C 14,1 C 4,1 km/h (1 Bft)
25.04.2018 08:26 13,9 C 16,9 C 13,5 C 13,1 C 77 % 1016,2 hPa 0,0 l/m 2,6 km/h (1 Bft) NW 315 9,9 C 13,9 C 7,7 km/h (2 Bft)
25.04.2018 08:24 13,7 C 16,6 C 13,5 C 13,1 C 77 % 1016,2 hPa 0,0 l/m 2,4 km/h (1 Bft) W-NW 292 9,7 C 13,7 C 7,7 km/h (2 Bft)
25.04.2018 08:22 13,4 C 15,9 C 13,5 C 12,9 C 78 % 1016,2 hPa 0,0 l/m 2,3 km/h (1 Bft) S-SO 157 9,6 C 13,4 C 4,4 km/h (1 Bft)
25.04.2018 08:20 13,2 C 15,8 C 13,5 C 12,7 C 78 % 1016,2 hPa 0,0 l/m 2,6 km/h (1 Bft) O-SO 112 9,4 C 13,2 C 4,6 km/h (1 Bft)
25.04.2018 08:18 12,8 C 15,8 C 13,5 C 12,5 C 80 % 1016,2 hPa 0,0 l/m 2,9 km/h (1 Bft) N-NO 22 9,4 C 12,8 C 4,6 km/h (1 Bft)
25.04.2018 08:16 12,8 C 16,0 C 13,5 C 12,4 C 80 % 1016,2 hPa 0,0 l/m 3,1 km/h (1 Bft) NO 45 9,4 C 12,8 C 4,6 km/h (1 Bft)
25.04.2018 08:14 12,7 C 15,5 C 13,5 C 12,3 C 80 % 1016,2 hPa 0,0 l/m 3,5 km/h (1 Bft) N-NW 337 9,3 C 12,7 C 4,6 km/h (1 Bft)
25.04.2018 08:12 12,6 C 15,4 C 13,5 C 12,0 C 80 % 1016,2 hPa 0,0 l/m 3,7 km/h (1 Bft) N 360 9,2 C 12,6 C 6,0 km/h (2 Bft)
25.04.2018 08:10 12,5 C 15,1 C 13,5 C 11,9 C 80 % 1016,2 hPa 0,0 l/m 3,2 km/h (1 Bft) NW 315 9,1 C 12,5 C 6,2 km/h (2 Bft)
25.04.2018 08:08 12,4 C 14,9 C 13,5 C 11,8 C 80 % 1016,2 hPa 0,0 l/m 2,6 km/h (1 Bft) N-NW 337 9,0 C 12,4 C 6,2 km/h (2 Bft)
25.04.2018 08:06 12,0 C 14,7 C 13,5 C 11,6 C 81 % 1016,2 hPa 0,0 l/m 2,6 km/h (1 Bft) N-NW 337 8,8 C 12,0 C 4,4 km/h (1 Bft)
25.04.2018 08:04 12,0 C 14,6 C 13,5 C 11,4 C 81 % 1016,2 hPa 0,0 l/m 2,3 km/h (1 Bft) N-NW 337 8,8 C 12,0 C 4,4 km/h (1 Bft)
25.04.2018 08:02 12,0 C 14,2 C 13,5 C 11,1 C 81 % 1016,2 hPa 0,0 l/m 1,8 km/h (1 Bft) N-NW 337 8,8 C 12,0 C 4,1 km/h (1 Bft)
25.04.2018 08:00 11,8 C 14,0 C 13,6 C 11,1 C 81 % 1016,2 hPa 0,0 l/m 1,9 km/h (1 Bft) NW 315 8,6 C 11,8 C 2,3 km/h (1 Bft)
25.04.2018 07:58 11,4 C 13,6 C 13,6 C 11,0 C 82 % 1016,2 hPa 0,0 l/m 2,6 km/h (1 Bft) N-NW 337 8,4 C 11,4 C 4,1 km/h (1 Bft)
25.04.2018 07:56 11,4 C 12,3 C 13,6 C 10,7 C 82 % 1016,2 hPa 0,0 l/m 2,7 km/h (1 Bft) N-NW 337 8,4 C 11,4 C 4,1 km/h (1 Bft)
25.04.2018 07:54 11,2 C 11,9 C 13,6 C 10,6 C 82 % 1016,2 hPa 0,0 l/m 2,4 km/h (1 Bft) N-NO 22 8,2 C 11,2 C 3,5 km/h (1 Bft)
25.04.2018 07:52 11,2 C 11,5 C 13,6 C 10,4 C 82 % 1016,2 hPa 0,0 l/m 2,7 km/h (1 Bft) NW 315 8,2 C 11,2 C 6,0 km/h (2 Bft)
25.04.2018 07:50 11,0 C 11,1 C 13,6 C 10,3 C 82 % 1016,2 hPa 0,0 l/m 3,2 km/h (1 Bft) N-NO 22 8,0 C 11,0 C 6,0 km/h (2 Bft)
25.04.2018 07:48 10,8 C 10,8 C 13,6 C 10,1 C 82 % 1016,2 hPa 0,0 l/m 3,1 km/h (1 Bft) N-NW 337 7,9 C 10,8 C 4,8 km/h (1 Bft)
25.04.2018 07:46 10,5 C 10,7 C 13,6 C 9,9 C 82 % 1016,2 hPa 0,0 l/m 2,7 km/h (1 Bft) N-NW 337 7,6 C 10,5 C 4,8 km/h (1 Bft)
25.04.2018 07:44 10,4 C 10,7 C 13,7 C 9,9 C 83 % 1016,2 hPa 0,0 l/m 2,9 km/h (1 Bft) N-NW 337 7,6 C 10,4 C 4,8 km/h (1 Bft)
25.04.2018 07:42 10,2 C 10,5 C 13,7 C 9,8 C 83 % 1016,2 hPa 0,0 l/m 3,2 km/h (1 Bft) N-NW 337 7,4 C 10,2 C 5,2 km/h (1 Bft)
25.04.2018 07:40 10,2 C 10,5 C 13,7 C 9,8 C 83 % 1016,2 hPa 0,0 l/m 3,1 km/h (1 Bft) N-NO 22 7,4 C 10,2 C 5,2 km/h (1 Bft)
25.04.2018 07:38 10,1 C 10,4 C 13,7 C 9,7 C 83 % 1016,2 hPa 0,0 l/m 3,1 km/h (1 Bft) N-NO 22 7,3 C 10,1 C 3,3 km/h (1 Bft)
25.04.2018 07:36 10,1 C 10,3 C 13,7 C 9,7 C 83 % 1016,2 hPa 0,0 l/m 3,7 km/h (1 Bft) N-NW 337 7,3 C 10,1 C 5,6 km/h (1 Bft)
25.04.2018 07:34 10,1 C 10,4 C 13,7 C 9,6 C 83 % 1016,2 hPa 0,0 l/m 3,7 km/h (1 Bft) NW 315 7,3 C 10,1 C 5,6 km/h (1 Bft)
25.04.2018 07:32 10,0 C 10,4 C 13,7 C 9,5 C 83 % 1016,2 hPa 0,0 l/m 3,5 km/h (1 Bft) N 360 7,2 C 10,0 C 5,2 km/h (1 Bft)
25.04.2018 07:30 10,0 C 10,4 C 13,7 C 9,5 C 83 % 1016,2 hPa 0,0 l/m 3,4 km/h (1 Bft) NW 315 7,2 C 10,0 C 5,6 km/h (1 Bft)
25.04.2018 07:28 9,9 C 10,3 C 13,7 C 9,5 C 83 % 1016,2 hPa 0,0 l/m 3,4 km/h (1 Bft) N-NW 337 7,2 C 9,9 C 5,6 km/h (1 Bft)
25.04.2018 07:26 9,9 C 10,0 C 13,7 C 9,4 C 83 % 1016,2 hPa 0,0 l/m 2,6 km/h (1 Bft) N-NW 337 7,2 C 9,9 C 4,8 km/h (1 Bft)
25.04.2018 07:24 9,8 C 9,9 C 13,7 C 9,3 C 83 % 1016,2 hPa 0,0 l/m 2,4 km/h (1 Bft) N-NW 337 7,1 C 9,8 C 5,2 km/h (1 Bft)
25.04.2018 07:22 9,7 C 9,7 C 13,7 C 9,2 C 83 % 1016,2 hPa 0,0 l/m 2,7 km/h (1 Bft) N-NW 337 7,0 C 9,7 C 5,2 km/h (1 Bft)
25.04.2018 07:20 9,7 C 9,5 C 13,7 C 9,2 C 83 % 1016,2 hPa 0,0 l/m 2,9 km/h (1 Bft) NW 315 7,0 C 9,7 C 3,5 km/h (1 Bft)
25.04.2018 07:18 9,7 C 9,4 C 13,7 C 9,2 C 83 % 1016,2 hPa 0,0 l/m 2,7 km/h (1 Bft) N-NW 337 7,0 C 9,7 C 3,5 km/h (1 Bft)
25.04.2018 07:16 9,7 C 9,4 C 13,7 C 9,1 C 83 % 1016,2 hPa 0,0 l/m 3,2 km/h (1 Bft) NW 315 7,0 C 9,7 C 6,6 km/h (2 Bft)
25.04.2018 07:14 9,7 C 9,5 C 13,7 C 9,1 C 83 % 1016,2 hPa 0,0 l/m 3,5 km/h (1 Bft) NW 315 7,0 C 9,7 C 6,6 km/h (2 Bft)
25.04.2018 07:12 9,6 C 9,5 C 13,7 C 9,1 C 83 % 1016,2 hPa 0,0 l/m 3,1 km/h (1 Bft) W-NW 292 6,9 C 9,6 C 6,2 km/h (2 Bft)
25.04.2018 07:10 9,6 C 9,4 C 13,7 C 8,9 C 83 % 1016,2 hPa 0,0 l/m 2,6 km/h (1 Bft) W 270 6,9 C 9,6 C 6,2 km/h (2 Bft)
25.04.2018 07:08 9,5 C 9,2 C 13,7 C 8,9 C 83 % 1016,0 hPa 0,0 l/m 2,4 km/h (1 Bft) W-NW 292 6,8 C 9,5 C 4,4 km/h (1 Bft)
25.04.2018 07:06 9,5 C 9,2 C 13,8 C 8,9 C 83 % 1016,0 hPa 0,0 l/m 2,4 km/h (1 Bft) NW 315 6,8 C 9,5 C 4,4 km/h (1 Bft)
25.04.2018 07:04 9,3 C 9,3 C 13,8 C 8,8 C 83 % 1016,0 hPa 0,0 l/m 1,6 km/h (1 Bft) NW 315 6,6 C 9,3 C 4,4 km/h (1 Bft)
25.04.2018 07:02 9,3 C 9,2 C 13,8 C 8,9 C 83 % 1016,0 hPa 0,0 l/m 1,4 km/h (1 Bft) NW 315 6,6 C 9,3 C 4,4 km/h (1 Bft)
25.04.2018 07:00 9,3 C 9,2 C 13,8 C 8,8 C 83 % 1016,0 hPa 0,0 l/m 1,6 km/h (1 Bft) NW 315 6,6 C 9,3 C 3,5 km/h (1 Bft)
25.04.2018 06:58 9,2 C 9,2 C 13,8 C 8,7 C 83 % 1016,0 hPa 0,0 l/m 1,8 km/h (1 Bft) N-NW 337 6,5 C 9,2 C 4,6 km/h (1 Bft)
25.04.2018 06:56 9,2 C 9,2 C 13,8 C 8,7 C 83 % 1016,0 hPa 0,0 l/m 1,3 km/h (1 Bft) W 270 6,5 C 9,2 C 4,6 km/h (1 Bft)
25.04.2018 06:54 9,1 C 9,2 C 13,8 C 8,7 C 83 % 1016,0 hPa 0,0 l/m 1,3 km/h (1 Bft) S-SO 157 6,4 C 9,1 C 4,2 km/h (1 Bft)
25.04.2018 06:52 9,0 C 9,2 C 13,8 C 8,7 C 83 % 1016,0 hPa 0,0 l/m 2,1 km/h (1 Bft) W-NW 292 6,3 C 9,0 C 4,2 km/h (1 Bft)
25.04.2018 06:50 8,9 C 9,1 C 13,8 C 8,6 C 83 % 1016,0 hPa 0,0 l/m 2,1 km/h (1 Bft) NW 315 6,2 C 8,9 C 4,2 km/h (1 Bft)
25.04.2018 06:48 8,9 C 9,2 C 13,8 C 8,6 C 83 % 1016,2 hPa 0,0 l/m 2,6 km/h (1 Bft) NW 315 6,2 C 8,9 C 4,2 km/h (1 Bft)
25.04.2018 06:46 8,8 C 9,1 C 13,8 C 8,6 C 84 % 1016,2 hPa 0,0 l/m 2,9 km/h (1 Bft) N 360 6,2 C 8,8 C 4,6 km/h (1 Bft)
25.04.2018 06:44 8,8 C 8,9 C 13,8 C 8,5 C 84 % 1016,2 hPa 0,0 l/m 3,1 km/h (1 Bft) N-NW 337 6,2 C 8,8 C 7,1 km/h (2 Bft)
25.04.2018 06:42 8,7 C 8,9 C 13,8 C 8,5 C 84 % 1016,2 hPa 0,0 l/m 3,1 km/h (1 Bft) W-NW 292 6,2 C 8,7 C 7,1 km/h (2 Bft)
25.04.2018 06:40 8,7 C 8,6 C 13,8 C 8,4 C 84 % 1016,2 hPa 0,0 l/m 3,2 km/h (1 Bft) NW 315 6,2 C 8,7 C 4,6 km/h (1 Bft)
25.04.2018 06:38 8,7 C 8,6 C 13,8 C 8,5 C 83 % 1016,2 hPa 0,0 l/m 3,1 km/h (1 Bft) N-NW 337 6,0 C 8,7 C 5,2 km/h (1 Bft)
25.04.2018 06:36 8,6 C 8,5 C 13,8 C 8,4 C 83 % 1016,2 hPa 0,0 l/m 2,7 km/h (1 Bft) NW 315 5,9 C 8,6 C 5,2 km/h (1 Bft)
25.04.2018 06:34 8,5 C 8,2 C 13,8 C 8,4 C 83 % 1016,2 hPa 0,0 l/m 2,9 km/h (1 Bft) N-NO 22 5,8 C 8,5 C 7,0 km/h (2 Bft)
25.04.2018 06:32 8,5 C 8,1 C 13,9 C 8,4 C 83 % 1016,2 hPa 0,0 l/m 3,4 km/h (1 Bft) N-NW 337 5,8 C 8,5 C 7,0 km/h (2 Bft)
25.04.2018 06:30 8,5 C 8,2 C 13,9 C 8,4 C 83 % 1016,2 hPa 0,0 l/m 2,7 km/h (1 Bft) N-NW 337 5,8 C 8,5 C 4,1 km/h (1 Bft)
25.04.2018 06:28 8,6 C 8,2 C 13,9 C 8,5 C 83 % 1016,2 hPa 0,0 l/m 2,9 km/h (1 Bft) W-NW 292 5,9 C 8,6 C 4,1 km/h (1 Bft)
25.04.2018 06:26 8,6 C 8,2 C 13,9 C 8,5 C 83 % 1016,2 hPa 0,0 l/m 3,1 km/h (1 Bft) W 270 5,9 C 8,6 C 6,6 km/h (2 Bft)
25.04.2018 06:24 8,6 C 8,2 C 13,9 C 8,4 C 83 % 1016,2 hPa 0,0 l/m 2,9 km/h (1 Bft) N 360 5,9 C 8,6 C 6,6 km/h (2 Bft)
25.04.2018 06:22 8,6 C 8,3 C 13,9 C 8,5 C 83 % 1016,2 hPa 0,0 l/m 2,4 km/h (1 Bft) W-SW 247 5,9 C 8,6 C 4,8 km/h (1 Bft)
25.04.2018 06:20 8,5 C 8,0 C 13,9 C 8,5 C 83 % 1016,2 hPa 0,0 l/m 2,4 km/h (1 Bft) N-NO 22 5,8 C 8,5 C 5,0 km/h (1 Bft)
25.04.2018 06:18 8,6 C 8,0 C 13,9 C 8,5 C 83 % 1016,2 hPa 0,0 l/m 2,6 km/h (1 Bft) NW 315 5,9 C 8,6 C 5,0 km/h (1 Bft)
25.04.2018 06:16 8,6 C 8,0 C 13,9 C 8,5 C 83 % 1016,2 hPa 0,0 l/m 2,6 km/h (1 Bft) NW 315 5,9 C 8,6 C 4,4 km/h (1 Bft)
25.04.2018 06:14 8,7 C 8,1 C 13,9 C 8,5 C 83 % 1016,2 hPa 0,0 l/m 2,6 km/h (1 Bft) N 360 6,0 C 8,7 C 3,1 km/h (1 Bft)
25.04.2018 06:12 8,7 C 8,2 C 13,9 C 8,5 C 83 % 1016,2 hPa 0,0 l/m 2,6 km/h (1 Bft) N-NW 337 6,0 C 8,7 C 4,6 km/h (1 Bft)
25.04.2018 06:10 8,7 C 8,1 C 13,9 C 8,5 C 83 % 1016,2 hPa 0,0 l/m 2,9 km/h (1 Bft) NW 315 6,0 C 8,7 C 4,6 km/h (1 Bft)
25.04.2018 06:08 8,7 C 8,2 C 13,9 C 8,5 C 83 % 1016,1 hPa 0,0 l/m 2,9 km/h (1 Bft) NW 315 6,0 C 8,7 C 4,6 km/h (1 Bft)
25.04.2018 06:06 8,7 C 8,1 C 13,9 C 8,5 C 83 % 1016,1 hPa 0,0 l/m 2,9 km/h (1 Bft) NW 315 6,0 C 8,7 C 4,6 km/h (1 Bft)
25.04.2018 06:04 8,7 C 8,5 C 13,9 C 8,5 C 83 % 1016,1 hPa 0,0 l/m 2,9 km/h (1 Bft) NW 315 6,0 C 8,7 C 4,6 km/h (1 Bft)
25.04.2018 06:02 8,6 C 8,5 C 13,9 C 8,5 C 83 % 1016,1 hPa 0,0 l/m 2,9 km/h (1 Bft) NW 315 5,9 C 8,6 C 4,6 km/h (1 Bft)
25.04.2018 06:00 8,6 C 8,1 C 14,0 C 8,5 C 83 % 1016,1 hPa 0,0 l/m 2,6 km/h (1 Bft) NW 315 5,9 C 8,6 C 7,1 km/h (2 Bft)
25.04.2018 05:58 8,7 C 8,1 C 14,0 C 8,5 C 83 % 1016,1 hPa 0,0 l/m 1,8 km/h (1 Bft) W 270 6,0 C 8,7 C 7,1 km/h (2 Bft)
25.04.2018 05:56 8,7 C 7,8 C 14,0 C 8,5 C 83 % 1016,1 hPa 0,0 l/m 1,8 km/h (1 Bft) W 270 6,0 C 8,7 C 5,8 km/h (2 Bft)
25.04.2018 05:54 8,7 C 7,8 C 14,0 C 8,5 C 83 % 1016,1 hPa 0,0 l/m 2,1 km/h (1 Bft) NW 315 6,0 C 8,7 C 4,6 km/h (1 Bft)
25.04.2018 05:52 8,7 C 7,9 C 14,0 C 8,5 C 83 % 1016,1 hPa 0,0 l/m 1,9 km/h (1 Bft) N-NW 337 6,0 C 8,7 C 3,9 km/h (1 Bft)
25.04.2018 05:50 8,7 C 7,9 C 14,0 C 8,6 C 83 % 1016,1 hPa 0,0 l/m 1,6 km/h (1 Bft) SW 225 6,0 C 8,7 C 0,0 km/h (0 Bft)
25.04.2018 05:48 8,7 C 7,8 C 14,0 C 8,5 C 83 % 1016,2 hPa 0,0 l/m 2,1 km/h (1 Bft) O-SO 112 6,0 C 8,7 C 5,4 km/h (1 Bft)
25.04.2018 05:46 8,7 C 7,7 C 14,0 C 8,6 C 83 % 1016,2 hPa 0,0 l/m 2,6 km/h (1 Bft) N 360 6,0 C 8,7 C 5,4 km/h (1 Bft)
25.04.2018 05:44 8,7 C 7,8 C 14,0 C 8,5 C 83 % 1016,2 hPa 0,0 l/m 2,6 km/h (1 Bft) N-NW 337 6,0 C 8,7 C 5,0 km/h (1 Bft)
25.04.2018 05:42 8,7 C 7,9 C 14,0 C 8,6 C 83 % 1016,2 hPa 0,0 l/m 2,4 km/h (1 Bft) NW 315 6,0 C 8,7 C 3,1 km/h (1 Bft)
25.04.2018 05:40 8,7 C 7,9 C 14,0 C 8,6 C 83 % 1016,2 hPa 0,0 l/m 2,7 km/h (1 Bft) W 270 6,0 C 8,7 C 4,4 km/h (1 Bft)
25.04.2018 05:38 8,7 C 8,0 C 14,0 C 8,6 C 83 % 1016,2 hPa 0,0 l/m 3,2 km/h (1 Bft) W-SW 247 6,0 C 8,7 C 4,4 km/h (1 Bft)
25.04.2018 05:36 8,8 C 8,0 C 14,0 C 8,6 C 83 % 1016,2 hPa 0,0 l/m 2,6 km/h (1 Bft) W-SW 247 6,1 C 8,8 C 5,2 km/h (1 Bft)
25.04.2018 05:34 8,8 C 8,1 C 14,0 C 8,6 C 83 % 1016,2 hPa 0,0 l/m 2,3 km/h (1 Bft) W-NW 292 6,1 C 8,8 C 5,2 km/h (1 Bft)
25.04.2018 05:32 8,8 C 8,0 C 14,1 C 8,6 C 83 % 1016,2 hPa 0,0 l/m 1,6 km/h (1 Bft) W-SW 247 6,1 C 8,8 C 4,8 km/h (1 Bft)
25.04.2018 05:30 8,8 C 7,9 C 14,1 C 8,6 C 83 % 1016,2 hPa 0,0 l/m 1,4 km/h (1 Bft) N-NW 337 6,1 C 8,8 C 4,8 km/h (1 Bft)
25.04.2018 05:28 8,8 C 7,8 C 14,1 C 8,6 C 83 % 1016,0 hPa 0,0 l/m 1,0 km/h (0 Bft) N-NO 22 6,1 C 8,8 C 3,5 km/h (1 Bft)
25.04.2018 05:26 8,8 C 8,0 C 14,1 C 8,6 C 83 % 1016,0 hPa 0,0 l/m 1,1 km/h (1 Bft) N-NW 337 6,1 C 8,8 C 3,1 km/h (1 Bft)
25.04.2018 05:24 8,8 C 8,1 C 14,1 C 8,6 C 83 % 1016,0 hPa 0,0 l/m 1,0 km/h (0 Bft) N-NW 337 6,1 C 8,8 C 0,0 km/h (0 Bft)
25.04.2018 05:22 8,9 C 8,2 C 14,1 C 8,6 C 83 % 1016,0 hPa 0,0 l/m 1,1 km/h (1 Bft) N-NW 337 6,2 C 8,9 C 4,1 km/h (1 Bft)
25.04.2018 05:20 8,9 C 8,3 C 14,1 C 8,7 C 83 % 1016,0 hPa 0,0 l/m 1,4 km/h (1 Bft) N-NW 337 6,2 C 8,9 C 4,1 km/h (1 Bft)
25.04.2018 05:18 8,9 C 8,2 C 14,1 C 8,7 C 83 % 1016,0 hPa 0,0 l/m 1,6 km/h (1 Bft) N-NW 337 6,2 C 8,9 C 5,0 km/h (1 Bft)
25.04.2018 05:16 8,9 C 8,2 C 14,1 C 8,7 C 83 % 1016,0 hPa 0,0 l/m 2,3 km/h (1 Bft) W-NW 292 6,2 C 8,9 C 7,9 km/h (2 Bft)
25.04.2018 05:14 8,9 C 8,6 C 14,1 C 8,7 C 83 % 1016,0 hPa 0,0 l/m 2,3 km/h (1 Bft) W 270 6,2 C 8,9 C 2,3 km/h (1 Bft)
25.04.2018 05:12 8,9 C 8,6 C 14,1 C 8,7 C 83 % 1016,0 hPa 0,0 l/m 2,4 km/h (1 Bft) N-NW 337 6,2 C 8,9 C 6,2 km/h (2 Bft)
25.04.2018 05:10 8,9 C 8,6 C 14,1 C 8,7 C 83 % 1016,0 hPa 0,0 l/m 2,3 km/h (1 Bft) W-SW 247 6,2 C 8,9 C 6,8 km/h (2 Bft)
25.04.2018 05:08 8,8 C 8,0 C 14,1 C 8,7 C 83 % 1016,2 hPa 0,0 l/m 2,4 km/h (1 Bft) N-NW 337 6,1 C 8,8 C 6,8 km/h (2 Bft)
25.04.2018 05:06 8,8 C 8,0 C 14,1 C 8,7 C 83 % 1016,2 hPa 0,0 l/m 2,3 km/h (1 Bft) N-NW 337 6,1 C 8,8 C 4,8 km/h (1 Bft)
25.04.2018 05:04 8,8 C 8,0 C 14,1 C 8,7 C 83 % 1016,2 hPa 0,0 l/m 2,4 km/h (1 Bft) N 360 6,1 C 8,8 C 2,7 km/h (1 Bft)
25.04.2018 05:02 8,9 C 8,1 C 14,1 C 8,7 C 83 % 1016,2 hPa 0,0 l/m 2,4 km/h (1 Bft) N-NO 22 6,2 C 8,9 C 2,5 km/h (1 Bft)
25.04.2018 05:00 8,9 C 8,1 C 14,1 C 8,7 C 83 % 1016,2 hPa 0,0 l/m 2,7 km/h (1 Bft) N-NO 22 6,2 C 8,9 C 4,6 km/h (1 Bft)
25.04.2018 04:58 9,0 C 8,1 C 14,2 C 8,7 C 83 % 1016,2 hPa 0,0 l/m 2,4 km/h (1 Bft) NW 315 6,3 C 9,0 C 5,0 km/h (1 Bft)
25.04.2018 04:56 9,0 C 8,3 C 14,2 C 8,7 C 83 % 1016,2 hPa 0,0 l/m 2,1 km/h (1 Bft) NW 315 6,3 C 9,0 C 5,4 km/h (1 Bft)
25.04.2018 04:54 9,0 C 8,5 C 14,2 C 8,7 C 83 % 1016,2 hPa 0,0 l/m 1,9 km/h (1 Bft) NW 315 6,3 C 9,0 C 5,4 km/h (1 Bft)
25.04.2018 04:52 8,9 C 8,5 C 14,2 C 8,8 C 83 % 1016,2 hPa 0,0 l/m 1,8 km/h (1 Bft) W-SW 247 6,2 C 8,9 C 4,1 km/h (1 Bft)
25.04.2018 04:50 8,8 C 8,6 C 14,2 C 8,8 C 83 % 1016,2 hPa 0,0 l/m 1,6 km/h (1 Bft) N-NW 337 6,1 C 8,8 C 3,1 km/h (1 Bft)
25.04.2018 04:48 8,8 C 8,7 C 14,2 C 8,8 C 83 % 1016,1 hPa 0,0 l/m 1,6 km/h (1 Bft) W-NW 292 6,1 C 8,8 C 3,3 km/h (1 Bft)
25.04.2018 04:46 8,7 C 8,3 C 14,2 C 8,8 C 83 % 1016,1 hPa 0,0 l/m 1,8 km/h (1 Bft) N-NW 337 6,0 C 8,7 C 3,3 km/h (1 Bft)
25.04.2018 04:44 8,7 C 8,2 C 14,2 C 8,8 C 83 % 1016,1 hPa 0,0 l/m 1,6 km/h (1 Bft) N-NO 22 6,0 C 8,7 C 3,3 km/h (1 Bft)
25.04.2018 04:42 8,7 C 8,3 C 14,2 C 8,8 C 82 % 1016,1 hPa 0,0 l/m 1,4 km/h (1 Bft) NO 45 5,8 C 8,7 C 0,0 km/h (0 Bft)
25.04.2018 04:40 8,7 C 8,2 C 14,2 C 8,8 C 82 % 1016,1 hPa 0,0 l/m 1,3 km/h (1 Bft) S 180 5,8 C 8,7 C 0,0 km/h (0 Bft)
25.04.2018 04:39 8,7 C 8,2 C 14,2 C 8,8 C 82 % 1016,1 hPa 0,0 l/m 1,3 km/h (1 Bft) S 180 5,8 C 8,7 C 0,0 km/h (0 Bft)
25.04.2018 04:36 8,8 C 8,1 C 14,2 C 8,9 C 82 % 1016,1 hPa 0,0 l/m 1,3 km/h (1 Bft) S-SO 157 5,9 C 8,8 C 3,3 km/h (1 Bft)
25.04.2018 04:34 8,8 C 8,1 C 14,2 C 8,9 C 82 % 1016,1 hPa 0,0 l/m 1,4 km/h (1 Bft) NW 315 5,9 C 8,8 C 5,2 km/h (1 Bft)
25.04.2018 04:32 8,8 C 8,0 C 14,2 C 8,9 C 82 % 1016,1 hPa 0,0 l/m 1,6 km/h (1 Bft) N 360 5,9 C 8,8 C 5,2 km/h (1 Bft)
25.04.2018 04:30 8,8 C 8,0 C 14,3 C 8,9 C 82 % 1016,1 hPa 0,0 l/m 1,6 km/h (1 Bft) SW 225 5,9 C 8,8 C 3,7 km/h (1 Bft)
25.04.2018 04:28 8,8 C 8,1 C 14,2 C 8,9 C 82 % 1016,2 hPa 0,0 l/m 1,6 km/h (1 Bft) NW 315 5,9 C 8,8 C 3,7 km/h (1 Bft)
25.04.2018 04:26 8,9 C 8,1 C 14,3 C 8,9 C 82 % 1016,2 hPa 0,0 l/m 1,4 km/h (1 Bft) W 270 6,0 C 8,9 C 3,7 km/h (1 Bft)
25.04.2018 04:24 8,9 C 8,1 C 14,3 C 9,0 C 82 % 1016,2 hPa 0,0 l/m 1,6 km/h (1 Bft) W-NW 292 6,0 C 8,9 C 3,7 km/h (1 Bft)
25.04.2018 04:22 8,9 C 8,0 C 14,3 C 9,0 C 82 % 1016,2 hPa 0,0 l/m 1,6 km/h (1 Bft) W-NW 292 6,0 C 8,9 C 3,7 km/h (1 Bft)
25.04.2018 04:20 8,9 C 8,0 C 14,3 C 9,0 C 82 % 1016,2 hPa 0,0 l/m 1,4 km/h (1 Bft) NW 315 6,0 C 8,9 C 0,0 km/h (0 Bft)
25.04.2018 04:18 8,9 C 8,0 C 14,3 C 9,0 C 82 % 1016,2 hPa 0,0 l/m 1,8 km/h (1 Bft) N-NW 337 6,0 C 8,9 C 0,0 km/h (0 Bft)
25.04.2018 04:16 9,0 C 8,1 C 14,3 C 9,1 C 82 % 1016,2 hPa 0,0 l/m 1,8 km/h (1 Bft) N-NO 22 6,1 C 9,0 C 2,9 km/h (1 Bft)
25.04.2018 04:14 9,0 C 8,2 C 14,3 C 9,1 C 82 % 1016,2 hPa 0,0 l/m 1,6 km/h (1 Bft) N-NW 337 6,1 C 9,0 C 4,8 km/h (1 Bft)
25.04.2018 04:12 9,0 C 8,3 C 14,3 C 9,1 C 82 % 1016,2 hPa 0,0 l/m 1,3 km/h (1 Bft) N 360 6,1 C 9,0 C 4,8 km/h (1 Bft)
25.04.2018 04:10 9,0 C 8,3 C 14,3 C 9,1 C 82 % 1016,2 hPa 0,0 l/m 1,3 km/h (1 Bft) SO 135 6,1 C 9,0 C 2,9 km/h (1 Bft)
25.04.2018 04:09 9,0 C 8,3 C 14,3 C 9,1 C 82 % 1016,2 hPa 0,0 l/m 1,3 km/h (1 Bft) SO 135 6,1 C 9,0 C 2,9 km/h (1 Bft)
25.04.2018 04:06 9,1 C 8,3 C 14,3 C 9,1 C 82 % 1016,4 hPa 0,0 l/m 1,6 km/h (1 Bft) W-SW 247 6,2 C 9,1 C 2,7 km/h (1 Bft)
25.04.2018 04:04 9,1 C 8,1 C 14,3 C 9,1 C 82 % 1016,4 hPa 0,0 l/m 1,6 km/h (1 Bft) W-SW 247 6,2 C 9,1 C 2,7 km/h (1 Bft)
25.04.2018 04:02 9,1 C 8,2 C 14,3 C 9,1 C 82 % 1016,4 hPa 0,0 l/m 1,6 km/h (1 Bft) NO 45 6,2 C 9,1 C 3,1 km/h (1 Bft)
25.04.2018 04:00 9,1 C 8,1 C 14,3 C 9,1 C 82 % 1016,4 hPa 0,0 l/m 1,4 km/h (1 Bft) N-NW 337 6,2 C 9,1 C 4,6 km/h (1 Bft)
25.04.2018 03:58 9,1 C 8,2 C 14,4 C 9,1 C 82 % 1016,4 hPa 0,0 l/m 1,4 km/h (1 Bft) N-NW 337 6,2 C 9,1 C 4,6 km/h (1 Bft)
25.04.2018 03:56 9,1 C 8,5 C 14,4 C 9,1 C 82 % 1016,4 hPa 0,0 l/m 1,3 km/h (1 Bft) NW 315 6,2 C 9,1 C 3,1 km/h (1 Bft)
25.04.2018 03:54 9,1 C 8,7 C 14,4 C 9,1 C 82 % 1016,4 hPa 0,0 l/m 1,1 km/h (1 Bft) NW 315 6,2 C 9,1 C 2,1 km/h (1 Bft)
25.04.2018 03:52 9,1 C 8,5 C 14,4 C 9,2 C 82 % 1016,4 hPa 0,0 l/m 1,6 km/h (1 Bft) N-NW 337 6,2 C 9,1 C 2,1 km/h (1 Bft)
25.04.2018 03:50 9,1 C 8,3 C 14,4 C 9,2 C 82 % 1016,4 hPa 0,0 l/m 1,8 km/h (1 Bft) W 270 6,2 C 9,1 C 3,9 km/h (1 Bft)
25.04.2018 03:48 9,2 C 8,3 C 14,4 C 9,2 C 82 % 1016,7 hPa 0,0 l/m 1,6 km/h (1 Bft) NW 315 6,3 C 9,2 C 3,9 km/h (1 Bft)
25.04.2018 03:46 9,2 C 8,3 C 14,4 C 9,2 C 82 % 1016,7 hPa 0,0 l/m 1,3 km/h (1 Bft) NW 315 6,3 C 9,2 C 3,1 km/h (1 Bft)
25.04.2018 03:44 9,2 C 8,5 C 14,4 C 9,2 C 82 % 1016,7 hPa 0,0 l/m 1,1 km/h (1 Bft) N-NW 337 6,3 C 9,2 C 3,9 km/h (1 Bft)
25.04.2018 03:42 9,1 C 8,6 C 14,4 C 9,2 C 82 % 1016,7 hPa 0,0 l/m 1,6 km/h (1 Bft) NW 315 6,2 C 9,1 C 3,9 km/h (1 Bft)
25.04.2018 03:40 9,1 C 8,5 C 14,4 C 9,3 C 81 % 1016,7 hPa 0,0 l/m 1,4 km/h (1 Bft) N-NW 337 6,0 C 9,1 C 2,7 km/h (1 Bft)
25.04.2018 03:38 9,1 C 8,2 C 14,4 C 9,3 C 81 % 1016,7 hPa 0,0 l/m 1,6 km/h (1 Bft) N-NO 22 6,0 C 9,1 C 2,5 km/h (1 Bft)
25.04.2018 03:36 9,1 C 8,3 C 14,4 C 9,3 C 81 % 1016,7 hPa 0,0 l/m 1,6 km/h (1 Bft) N-NW 337 6,0 C 9,1 C 3,3 km/h (1 Bft)
25.04.2018 03:34 9,1 C 8,5 C 14,4 C 9,3 C 81 % 1016,7 hPa 0,0 l/m 1,6 km/h (1 Bft) N-NW 337 6,0 C 9,1 C 4,1 km/h (1 Bft)
25.04.2018 03:32 9,2 C 8,5 C 14,4 C 9,3 C 81 % 1016,7 hPa 0,0 l/m 1,4 km/h (1 Bft) NO 45 6,1 C 9,2 C 4,1 km/h (1 Bft)
25.04.2018 03:30 9,2 C 8,7 C 14,5 C 9,3 C 81 % 1016,7 hPa 0,0 l/m 1,0 km/h (0 Bft) N-NO 22 6,1 C 9,2 C 2,7 km/h (1 Bft)
25.04.2018 03:28 9,2 C 8,8 C 14,5 C 9,4 C 81 % 1016,6 hPa 0,0 l/m 1,1 km/h (1 Bft) N-NW 337 6,1 C 9,2 C 2,3 km/h (1 Bft)
25.04.2018 03:26 9,2 C 8,7 C 14,5 C 9,4 C 81 % 1016,6 hPa 0,0 l/m 1,0 km/h (0 Bft) W-NW 292 6,1 C 9,2 C 1,9 km/h (1 Bft)
25.04.2018 03:24 9,3 C 8,8 C 14,5 C 9,4 C 81 % 1016,6 hPa 0,0 l/m 1,4 km/h (1 Bft) N-NW 337 6,2 C 9,3 C 3,1 km/h (1 Bft)
25.04.2018 03:22 9,3 C 8,6 C 14,5 C 9,4 C 81 % 1016,6 hPa 0,0 l/m 1,6 km/h (1 Bft) N 360 6,2 C 9,3 C 3,1 km/h (1 Bft)
25.04.2018 03:20 9,3 C 8,6 C 14,5 C 9,4 C 81 % 1016,6 hPa 0,0 l/m 2,1 km/h (1 Bft) N 360 6,2 C 9,3 C 3,3 km/h (1 Bft)
25.04.2018 03:18 9,3 C 8,7 C 14,5 C 9,4 C 81 % 1016,6 hPa 0,0 l/m 1,9 km/h (1 Bft) N-NO 22 6,2 C 9,3 C 3,3 km/h (1 Bft)
25.04.2018 03:16 9,3 C 8,6 C 14,5 C 9,5 C 81 % 1016,6 hPa 0,0 l/m 1,9 km/h (1 Bft) N-NW 337 6,2 C 9,3 C 4,2 km/h (1 Bft)
25.04.2018 03:14 9,3 C 8,7 C 14,5 C 9,5 C 81 % 1016,6 hPa 0,0 l/m 1,8 km/h (1 Bft) N-NW 337 6,2 C 9,3 C 4,2 km/h (1 Bft)
25.04.2018 03:12 9,3 C 8,6 C 14,5 C 9,5 C 81 % 1016,6 hPa 0,0 l/m 1,3 km/h (1 Bft) NW 315 6,2 C 9,3 C 3,9 km/h (1 Bft)
25.04.2018 03:10 9,4 C 8,8 C 14,5 C 9,5 C 81 % 1016,6 hPa 0,0 l/m 0,8 km/h (0 Bft) W 270 6,3 C 9,4 C 3,3 km/h (1 Bft)
25.04.2018 03:08 9,4 C 8,7 C 14,5 C 9,5 C 81 % 1016,8 hPa 0,0 l/m 0,6 km/h (0 Bft) N 360 6,3 C 9,4 C 3,1 km/h (1 Bft)
25.04.2018 03:06 9,4 C 8,8 C 14,5 C 9,5 C 81 % 1016,8 hPa 0,0 l/m 0,8 km/h (0 Bft) N-NO 22 6,3 C 9,4 C 3,1 km/h (1 Bft)
25.04.2018 03:04 9,4 C 8,9 C 14,6 C 9,5 C 81 % 1016,8 hPa 0,0 l/m 0,8 km/h (0 Bft) NW 315 6,3 C 9,4 C 2,9 km/h (1 Bft)
25.04.2018 03:02 9,4 C 9,1 C 14,6 C 9,5 C 81 % 1016,8 hPa 0,0 l/m 1,6 km/h (1 Bft) N 360 6,3 C 9,4 C 0,0 km/h (0 Bft)
25.04.2018 03:00 9,4 C 9,1 C 14,6 C 9,6 C 81 % 1016,8 hPa 0,0 l/m 1,8 km/h (1 Bft) N-NO 22 6,3 C 9,4 C 1,9 km/h (1 Bft)
25.04.2018 02:58 9,4 C 9,2 C 14,6 C 9,6 C 81 % 1016,8 hPa 0,0 l/m 1,8 km/h (1 Bft) N-NO 22 6,3 C 9,4 C 3,1 km/h (1 Bft)
25.04.2018 02:56 9,4 C 9,2 C 14,6 C 9,6 C 81 % 1016,8 hPa 0,0 l/m 1,9 km/h (1 Bft) N 360 6,3 C 9,4 C 7,3 km/h (2 Bft)
25.04.2018 02:54 9,4 C 9,0 C 14,6 C 9,6 C 81 % 1016,8 hPa 0,0 l/m 1,8 km/h (1 Bft) NO 45 6,3 C 9,4 C 6,4 km/h (2 Bft)
25.04.2018 02:52 9,4 C 8,7 C 14,6 C 9,6 C 81 % 1016,8 hPa 0,0 l/m 1,9 km/h (1 Bft) NW 315 6,3 C 9,4 C 6,4 km/h (2 Bft)
25.04.2018 02:50 9,5 C 8,7 C 14,6 C 9,6 C 81 % 1016,8 hPa 0,0 l/m 1,1 km/h (1 Bft) W-NW 292 6,4 C 9,5 C 2,9 km/h (1 Bft)
25.04.2018 02:48 9,5 C 8,7 C 14,6 C 9,6 C 81 % 1016,9 hPa 0,0 l/m 1,4 km/h (1 Bft) S-SO 157 6,4 C 9,5 C 0,0 km/h (0 Bft)
25.04.2018 02:46 9,5 C 8,8 C 14,6 C 9,7 C 81 % 1016,9 hPa 0,0 l/m 1,3 km/h (1 Bft) W 270 6,4 C 9,5 C 0,0 km/h (0 Bft)
25.04.2018 02:44 9,6 C 8,7 C 14,6 C 9,6 C 81 % 1016,9 hPa 0,0 l/m 1,4 km/h (1 Bft) N-NW 337 6,5 C 9,6 C 3,7 km/h (1 Bft)
25.04.2018 02:42 9,6 C 8,5 C 14,6 C 9,7 C 81 % 1016,9 hPa 0,0 l/m 1,4 km/h (1 Bft) N-NW 337 6,5 C 9,6 C 3,7 km/h (1 Bft)
25.04.2018 02:40 9,6 C 8,6 C 14,6 C 9,7 C 81 % 1016,9 hPa 0,0 l/m 1,6 km/h (1 Bft) NW 315 6,5 C 9,6 C 3,3 km/h (1 Bft)
25.04.2018 02:38 9,6 C 8,7 C 14,6 C 9,7 C 81 % 1016,9 hPa 0,0 l/m 1,3 km/h (1 Bft) N-NW 337 6,5 C 9,6 C 2,7 km/h (1 Bft)
25.04.2018 02:36 9,7 C 8,6 C 14,6 C 9,7 C 81 % 1016,9 hPa 0,0 l/m 1,3 km/h (1 Bft) N-NW 337 6,6 C 9,7 C 2,9 km/h (1 Bft)
25.04.2018 02:34 9,7 C 8,6 C 14,7 C 9,7 C 81 % 1016,9 hPa 0,0 l/m 1,3 km/h (1 Bft) N-NW 337 6,6 C 9,7 C 3,9 km/h (1 Bft)
25.04.2018 02:32 9,7 C 8,9 C 14,7 C 9,8 C 81 % 1016,9 hPa 0,0 l/m 1,0 km/h (0 Bft) NW 315 6,6 C 9,7 C 3,9 km/h (1 Bft)
25.04.2018 02:30 9,7 C 8,9 C 14,7 C 9,7 C 81 % 1016,9 hPa 0,0 l/m 1,3 km/h (1 Bft) N-NW 337 6,6 C 9,7 C 3,1 km/h (1 Bft)
25.04.2018 02:28 9,8 C 8,7 C 14,7 C 9,8 C 81 % 1016,9 hPa 0,0 l/m 1,1 km/h (1 Bft) NW 315 6,7 C 9,8 C 3,7 km/h (1 Bft)
25.04.2018 02:26 9,8 C 8,9 C 14,7 C 9,8 C 81 % 1016,9 hPa 0,0 l/m 1,1 km/h (1 Bft) NW 315 6,7 C 9,8 C 3,7 km/h (1 Bft)
25.04.2018 02:24 9,8 C 9,0 C 14,7 C 9,8 C 81 % 1016,9 hPa 0,0 l/m 0,8 km/h (0 Bft) SO 135 6,7 C 9,8 C 1,9 km/h (1 Bft)
25.04.2018 02:22 9,8 C 8,7 C 14,7 C 9,8 C 81 % 1016,9 hPa 0,0 l/m 1,0 km/h (0 Bft) N 360 6,7 C 9,8 C 3,9 km/h (1 Bft)
25.04.2018 02:20 9,8 C 8,9 C 14,7 C 9,8 C 81 % 1016,9 hPa 0,0 l/m 0,8 km/h (0 Bft) NW 315 6,7 C 9,8 C 3,9 km/h (1 Bft)
25.04.2018 02:18 9,8 C 9,0 C 14,7 C 9,8 C 82 % 1016,9 hPa 0,0 l/m 1,1 km/h (1 Bft) W 270 6,9 C 9,8 C 1,9 km/h (1 Bft)
25.04.2018 02:16 9,8 C 9,0 C 14,7 C 9,8 C 82 % 1016,9 hPa 0,0 l/m 1,4 km/h (1 Bft) W-NW 292 6,9 C 9,8 C 0,0 km/h (0 Bft)
25.04.2018 02:14 9,8 C 9,0 C 14,7 C 9,8 C 82 % 1016,9 hPa 0,0 l/m 1,9 km/h (1 Bft) W-NW 292 6,9 C 9,8 C 5,2 km/h (1 Bft)
25.04.2018 02:12 9,7 C 9,0 C 14,7 C 9,9 C 82 % 1016,9 hPa 0,0 l/m 2,1 km/h (1 Bft) W-SW 247 6,8 C 9,7 C 5,2 km/h (1 Bft)
25.04.2018 02:10 9,7 C 9,0 C 14,8 C 9,9 C 81 % 1016,9 hPa 0,0 l/m 1,9 km/h (1 Bft) W-SW 247 6,6 C 9,7 C 4,1 km/h (1 Bft)
25.04.2018 02:08 9,7 C 9,0 C 14,8 C 9,9 C 81 % 1017,2 hPa 0,0 l/m 2,1 km/h (1 Bft) N-NW 337 6,6 C 9,7 C 4,1 km/h (1 Bft)
25.04.2018 02:06 9,7 C 9,0 C 14,8 C 9,9 C 81 % 1017,2 hPa 0,0 l/m 1,9 km/h (1 Bft) N 360 6,6 C 9,7 C 4,6 km/h (1 Bft)
25.04.2018 02:04 9,7 C 9,2 C 14,8 C 9,9 C 81 % 1017,2 hPa 0,0 l/m 1,6 km/h (1 Bft) N-NO 22 6,6 C 9,7 C 4,6 km/h (1 Bft)
25.04.2018 02:02 9,7 C 9,3 C 14,8 C 9,9 C 81 % 1017,2 hPa 0,0 l/m 1,1 km/h (1 Bft) S-SO 157 6,6 C 9,7 C 0,0 km/h (0 Bft)
25.04.2018 02:00 9,7 C 9,3 C 14,8 C 9,9 C 81 % 1017,2 hPa 0,0 l/m 1,4 km/h (1 Bft) NW 315 6,6 C 9,7 C 4,2 km/h (1 Bft)
25.04.2018 01:58 9,7 C 9,0 C 14,8 C 9,9 C 81 % 1017,2 hPa 0,0 l/m 1,4 km/h (1 Bft) N-NW 337 6,6 C 9,7 C 4,2 km/h (1 Bft)
25.04.2018 01:56 9,8 C 9,1 C 14,8 C 9,9 C 81 % 1017,2 hPa 0,0 l/m 1,6 km/h (1 Bft) N-NW 337 6,7 C 9,8 C 5,2 km/h (1 Bft)
25.04.2018 01:54 9,8 C 9,2 C 14,8 C 9,9 C 81 % 1017,2 hPa 0,0 l/m 1,6 km/h (1 Bft) NW 315 6,7 C 9,8 C 0,0 km/h (0 Bft)
25.04.2018 01:52 9,8 C 9,1 C 14,8 C 10,0 C 81 % 1017,2 hPa 0,0 l/m 1,9 km/h (1 Bft) NW 315 6,7 C 9,8 C 3,5 km/h (1 Bft)
25.04.2018 01:50 9,8 C 9,2 C 14,8 C 10,0 C 81 % 1017,2 hPa 0,0 l/m 1,8 km/h (1 Bft) NW 315 6,7 C 9,8 C 3,5 km/h (1 Bft)
25.04.2018 01:48 9,8 C 9,3 C 14,8 C 10,0 C 81 % 1017,4 hPa 0,0 l/m 1,6 km/h (1 Bft) NO 45 6,7 C 9,8 C 4,4 km/h (1 Bft)
25.04.2018 01:46 9,8 C 9,0 C 14,8 C 10,0 C 81 % 1017,4 hPa 0,0 l/m 1,1 km/h (1 Bft) NW 315 6,7 C 9,8 C 4,4 km/h (1 Bft)
25.04.2018 01:44 9,8 C 9,0 C 14,9 C 10,0 C 81 % 1017,4 hPa 0,0 l/m 1,0 km/h (0 Bft) NW 315 6,7 C 9,8 C 2,7 km/h (1 Bft)
25.04.2018 01:42 9,8 C 9,0 C 14,9 C 10,0 C 81 % 1017,4 hPa 0,0 l/m 1,1 km/h (1 Bft) NW 315 6,7 C 9,8 C 2,7 km/h (1 Bft)
25.04.2018 01:40 9,8 C 9,3 C 14,9 C 10,1 C 81 % 1017,4 hPa 0,0 l/m 0,8 km/h (0 Bft) N-NW 337 6,7 C 9,8 C 2,5 km/h (1 Bft)
25.04.2018 01:38 9,8 C 9,4 C 14,9 C 10,1 C 81 % 1017,4 hPa 0,0 l/m 0,6 km/h (0 Bft) N-NW 337 6,7 C 9,8 C 2,5 km/h (1 Bft)
25.04.2018 01:36 9,8 C 9,3 C 14,9 C 10,1 C 81 % 1017,4 hPa 0,0 l/m 0,8 km/h (0 Bft) O 90 6,7 C 9,8 C 4,1 km/h (1 Bft)
25.04.2018 01:34 9,8 C 9,2 C 14,9 C 10,1 C 81 % 1017,4 hPa 0,0 l/m 1,0 km/h (0 Bft) NW 315 6,7 C 9,8 C 4,1 km/h (1 Bft)
25.04.2018 01:32 9,9 C 9,2 C 14,9 C 10,1 C 81 % 1017,4 hPa 0,0 l/m 0,5 km/h (0 Bft) N-NW 337 6,8 C 9,9 C 2,5 km/h (1 Bft)
25.04.2018 01:30 9,9 C 9,2 C 14,9 C 10,2 C 81 % 1017,4 hPa 0,0 l/m 0,6 km/h (0 Bft) N-NW 337 6,8 C 9,9 C 0,0 km/h (0 Bft)
25.04.2018 01:28 9,9 C 9,0 C 14,9 C 10,2 C 81 % 1017,7 hPa 0,0 l/m 0,8 km/h (0 Bft) N-NW 337 6,8 C 9,9 C 2,7 km/h (1 Bft)
25.04.2018 01:26 9,9 C 9,1 C 14,9 C 10,2 C 81 % 1017,7 hPa 0,0 l/m 0,6 km/h (0 Bft) N 360 6,8 C 9,9 C 2,7 km/h (1 Bft)
25.04.2018 01:24 9,9 C 9,2 C 14,9 C 10,2 C 81 % 1017,7 hPa 0,0 l/m 0,3 km/h (0 Bft) S-SO 157 6,8 C 9,9 C 0,0 km/h (0 Bft)
25.04.2018 01:22 10,0 C 9,5 C 14,9 C 10,3 C 80 % 1017,7 hPa 0,0 l/m 0,6 km/h (0 Bft) N-NW 337 6,7 C 10,0 C 2,5 km/h (1 Bft)
25.04.2018 01:20 10,0 C 9,3 C 15,0 C 10,3 C 80 % 1017,7 hPa 0,0 l/m 1,1 km/h (1 Bft) N-NW 337 6,7 C 10,0 C 2,5 km/h (1 Bft)
25.04.2018 01:18 10,0 C 9,2 C 15,0 C 10,3 C 80 % 1017,7 hPa 0,0 l/m 1,1 km/h (1 Bft) SW 225 6,7 C 10,0 C 1,9 km/h (1 Bft)
25.04.2018 01:16 10,1 C 9,5 C 15,0 C 10,3 C 80 % 1017,7 hPa 0,0 l/m 1,1 km/h (1 Bft) SO 135 6,8 C 10,1 C 0,0 km/h (0 Bft)
25.04.2018 01:14 10,1 C 9,3 C 15,0 C 10,3 C 80 % 1017,7 hPa 0,0 l/m 1,4 km/h (1 Bft) SO 135 6,8 C 10,1 C 2,9 km/h (1 Bft)
25.04.2018 01:12 10,1 C 9,0 C 15,0 C 10,3 C 80 % 1017,7 hPa 0,0 l/m 1,8 km/h (1 Bft) N-NW 337 6,8 C 10,1 C 4,1 km/h (1 Bft)
25.04.2018 01:10 10,1 C 9,2 C 15,0 C 10,4 C 80 % 1017,7 hPa 0,0 l/m 1,8 km/h (1 Bft) NW 315 6,8 C 10,1 C 4,1 km/h (1 Bft)
25.04.2018 01:08 10,1 C 9,2 C 15,0 C 10,4 C 80 % 1017,6 hPa 0,0 l/m 1,3 km/h (1 Bft) W-SW 247 6,8 C 10,1 C 2,9 km/h (1 Bft)
25.04.2018 01:06 10,1 C 9,2 C 15,0 C 10,4 C 80 % 1017,6 hPa 0,0 l/m 1,1 km/h (1 Bft) NW 315 6,8 C 10,1 C 3,3 km/h (1 Bft)
25.04.2018 01:04 10,1 C 9,1 C 15,0 C 10,4 C 80 % 1017,6 hPa 0,0 l/m 1,1 km/h (1 Bft) NW 315 6,8 C 10,1 C 3,3 km/h (1 Bft)
25.04.2018 01:02 10,1 C 9,2 C 15,0 C 10,4 C 80 % 1017,6 hPa 0,0 l/m 0,8 km/h (0 Bft) N-NW 337 6,8 C 10,1 C 2,9 km/h (1 Bft)
25.04.2018 01:00 10,1 C 9,3 C 15,0 C 10,5 C 80 % 1017,6 hPa 0,0 l/m 0,6 km/h (0 Bft) N-NW 337 6,8 C 10,1 C 2,9 km/h (1 Bft)
25.04.2018 00:58 10,2 C 9,3 C 15,0 C 10,5 C 80 % 1017,6 hPa 0,0 l/m 1,0 km/h (0 Bft) N-NO 22 6,9 C 10,2 C 0,0 km/h (0 Bft)
25.04.2018 00:56 10,2 C 9,5 C 15,0 C 10,5 C 80 % 1017,6 hPa 0,0 l/m 1,1 km/h (1 Bft) N-NO 22 6,9 C 10,2 C 4,8 km/h (1 Bft)
25.04.2018 00:54 10,2 C 9,6 C 15,1 C 10,5 C 80 % 1017,6 hPa 0,0 l/m 1,1 km/h (1 Bft) N-NO 22 6,9 C 10,2 C 1,9 km/h (1 Bft)
25.04.2018 00:52 10,2 C 9,6 C 15,1 C 10,5 C 80 % 1017,6 hPa 0,0 l/m 1,1 km/h (1 Bft) S-SO 157 6,9 C 10,2 C 4,4 km/h (1 Bft)
25.04.2018 00:50 10,3 C 9,3 C 15,1 C 10,6 C 79 % 1017,6 hPa 0,0 l/m 1,0 km/h (0 Bft) N-NW 337 6,8 C 10,3 C 4,4 km/h (1 Bft)
25.04.2018 00:48 10,3 C 9,3 C 15,1 C 10,6 C 79 % 1017,6 hPa 0,0 l/m 0,5 km/h (0 Bft) W 270 6,8 C 10,3 C 2,7 km/h (1 Bft)
25.04.2018 00:46 10,3 C 9,4 C 15,1 C 10,6 C 79 % 1017,6 hPa 0,0 l/m 0,2 km/h (0 Bft) W-NW 292 6,8 C 10,3 C 2,1 km/h (1 Bft)
25.04.2018 00:44 10,4 C 9,2 C 15,1 C 10,6 C 79 % 1017,6 hPa 0,0 l/m 0,2 km/h (0 Bft) N-NO 22 6,9 C 10,4 C 0,0 km/h (0 Bft)
25.04.2018 00:42 10,4 C 9,4 C 15,1 C 10,7 C 79 % 1017,6 hPa 0,0 l/m 0,2 km/h (0 Bft) NW 315 6,9 C 10,4 C 2,3 km/h (1 Bft)
25.04.2018 00:40 10,4 C 9,4 C 15,1 C 10,7 C 79 % 1017,6 hPa 0,0 l/m 0,2 km/h (0 Bft) NW 315 6,9 C 10,4 C 2,3 km/h (1 Bft)
25.04.2018 00:38 10,5 C 9,5 C 15,1 C 10,7 C 79 % 1017,6 hPa 0,0 l/m 0,2 km/h (0 Bft) N-NW 337 7,0 C 10,5 C 0,0 km/h (0 Bft)
25.04.2018 00:36 10,5 C 9,5 C 15,1 C 10,7 C 79 % 1017,6 hPa 0,0 l/m 0,3 km/h (0 Bft) N-NW 337 7,0 C 10,5 C 3,3 km/h (1 Bft)
25.04.2018 00:34 10,5 C 9,5 C 15,1 C 10,7 C 79 % 1017,6 hPa 0,0 l/m 0,5 km/h (0 Bft) N-NW 337 7,0 C 10,5 C 0,0 km/h (0 Bft)
25.04.2018 00:32 10,5 C 9,9 C 15,2 C 10,7 C 79 % 1017,6 hPa 0,0 l/m 0,5 km/h (0 Bft) NO 45 7,0 C 10,5 C 1,9 km/h (1 Bft)
25.04.2018 00:30 10,5 C 9,7 C 15,2 C 10,8 C 79 % 1017,6 hPa 0,0 l/m 0,6 km/h (0 Bft) NO 45 7,0 C 10,5 C 1,9 km/h (1 Bft)
25.04.2018 00:28 10,5 C 9,7 C 15,2 C 10,8 C 79 % 1017,7 hPa 0,0 l/m 0,8 km/h (0 Bft) N-NW 337 7,0 C 10,5 C 2,7 km/h (1 Bft)
25.04.2018 00:26 10,5 C 9,8 C 15,2 C 10,9 C 79 % 1017,7 hPa 0,0 l/m 0,5 km/h (0 Bft) N-NW 337 7,0 C 10,5 C 2,7 km/h (1 Bft)
25.04.2018 00:24 10,5 C 9,6 C 15,2 C 10,8 C 79 % 1017,7 hPa 0,0 l/m 0,6 km/h (0 Bft) W 270 7,0 C 10,5 C 0,0 km/h (0 Bft)
25.04.2018 00:22 10,5 C 9,9 C 15,2 C 10,9 C 79 % 1017,7 hPa 0,0 l/m 0,6 km/h (0 Bft) NO 45 7,0 C 10,5 C 0,0 km/h (0 Bft)
25.04.2018 00:20 10,5 C 9,9 C 15,2 C 10,9 C 79 % 1017,7 hPa 0,0 l/m 0,5 km/h (0 Bft) N-NW 337 7,0 C 10,5 C 2,3 km/h (1 Bft)
25.04.2018 00:18 10,5 C 9,9 C 15,2 C 10,9 C 79 % 1017,7 hPa 0,0 l/m 0,5 km/h (0 Bft) N-NO 22 7,0 C 10,5 C 2,3 km/h (1 Bft)
25.04.2018 00:16 10,5 C 9,8 C 15,2 C 11,0 C 79 % 1017,7 hPa 0,0 l/m 0,3 km/h (0 Bft) O-SO 112 7,0 C 10,5 C 2,1 km/h (1 Bft)
25.04.2018 00:14 10,5 C 9,9 C 15,2 C 11,0 C 79 % 1017,7 hPa 0,0 l/m 0,3 km/h (0 Bft) N 360 7,0 C 10,5 C 2,1 km/h (1 Bft)
25.04.2018 00:12 10,6 C 9,7 C 15,2 C 11,0 C 79 % 1017,7 hPa 0,0 l/m 0,0 km/h (0 Bft) N-NW 337 7,1 C 10,6 C 0,0 km/h (0 Bft)
25.04.2018 00:10 10,6 C 9,8 C 15,2 C 11,0 C 79 % 1017,7 hPa 0,0 l/m 0,0 km/h (0 Bft) NW 315 7,1 C 10,6 C 1,9 km/h (1 Bft)
25.04.2018 00:08 10,6 C 10,0 C 15,3 C 11,1 C 79 % 1018,1 hPa 0,0 l/m 0,0 km/h (0 Bft) W 270 7,1 C 10,6 C 1,9 km/h (1 Bft)
25.04.2018 00:06 10,6 C 9,9 C 15,3 C 11,1 C 79 % 1018,1 hPa 0,0 l/m 0,0 km/h (0 Bft) N-NO 22 7,1 C 10,6 C 0,0 km/h (0 Bft)
25.04.2018 00:04 10,7 C 9,7 C 15,3 C 11,1 C 79 % 1018,1 hPa 0,0 l/m 0,2 km/h (0 Bft) N-NO 22 7,2 C 10,7 C 0,0 km/h (0 Bft)
25.04.2018 00:02 10,7 C 9,7 C 15,3 C 11,1 C 79 % 1018,1 hPa 0,0 l/m 0,2 km/h (0 Bft) N-NO 22 7,2 C 10,7 C 0,0 km/h (0 Bft)
25.04.2018 00:00 10,7 C 9,7 C 15,3 C 11,1 C 78 % 1018,1 hPa 0,0 l/m 0,2 km/h (0 Bft) N-NO 22 7,0 C 10,7 C 0,0 km/h (0 Bft)
_ Min-Zeit 06:20 05:46 08:42 06:24 08:42 05:10 - 00:06 - - 06:20 06:20 00:00
Minimum _ 8,5 C 7,7 C 13,4 C 8,4 C 72 % 1016,0 hPa - 0,0 km/h (0 Bft) - - 5,8 C 8,5 C 0,0 km/h (0 Bft)
_ Max-Zeit 08:44 08:46 00:00 08:46 06:40 00:00 00:00 07:34 - - 08:34 08:44 08:46
Maximum _ 15,5 C 20,4 C 15,3 C 14,7 C 84 % 1018,1 hPa 0,0 l/m 3,7 km/h
NW (1 Bft)
- - 10,5 C 15,5 C 12,4 km/h
S (3 Bft)
Durchschnitt _ 9,9 C 9,7 C 14,3 C 9,8 C 81 % 1016,6 hPa #0,0 l/m 1,8 km/h (1 Bft) N-NW - 6,8 C 9,9 C 3,8 km/h (1 Bft)